Location: New Canada
(47.1017°N, 68.5042°W)
Time: 11:16:37
(UTC+00:00)

SEEDS - Visible Passes

Search period start: 20 April 2024 00:00
Search period end: 30 April 2024 00:00
Orbit: 555 x 564 km, 97.7° (Epoch: 19 April)

Date Brightness Start Highest point End Pass type
(mag) Time Alt. Az. Time Alt. Az. Time Alt. Az.
20 Apr ? 07:27:26 10° NE 07:29:46 15° E 07:32:05 10° SE visible
20 Apr ? 09:01:07 10° N 09:05:00 51° WNW 09:08:52 10° SSW visible
21 Apr ? 07:26:10 10° NE 07:28:24 14° E 07:30:37 10° SE visible
21 Apr ? 08:59:44 10° N 09:03:38 53° WNW 09:07:31 10° SSW visible
22 Apr ? 07:24:50 10° ENE 07:26:58 14° E 07:29:05 10° ESE visible
23 Apr ? 07:23:29 10° ENE 07:25:29 13° E 07:27:29 10° ESE visible
23 Apr ? 08:56:50 10° N 09:00:46 58° WNW 09:04:40 10° SSW visible
24 Apr ? 07:22:04 10° ENE 07:23:57 13° E 07:25:50 10° ESE visible
24 Apr ? 08:55:18 10° N 08:59:15 60° WNW 09:03:10 10° SSW visible
25 Apr ? 07:20:37 10° ENE 07:22:22 12° E 07:24:05 10° ESE visible
26 Apr ? 07:19:09 10° ENE 07:20:43 12° E 07:22:17 10° ESE visible
26 Apr ? 08:52:05 10° N 08:56:03 65° WNW 08:59:59 10° SSW visible
27 Apr ? 07:17:40 10° ENE 07:19:02 11° E 07:20:23 10° ESE visible
27 Apr ? 08:50:24 10° N 08:54:22 68° WNW 08:58:19 10° SSW visible
28 Apr ? 07:16:10 10° ENE 07:17:16 11° E 07:18:22 10° ESE visible
29 Apr ? 07:14:43 10° ENE 07:15:28 10° E 07:16:12 10° E visible
29 Apr ? 08:46:52 10° N 08:50:52 75° WNW 08:54:50 10° SSW visible
